Location: Mountain Grove
(34.0887°N, 86.6172°W)
Time: 21:40:23
(UTC+00:00)

Landsat 7 - Pass Details

Date: 14 July 2020
Orbit: 701 x 703 km, 98.1° (Epoch: 08 August)

Event Time Altitude Azimuth Distance (km) Brightness Sun altitude
Exits shadow 03:07:34 51° 172° (S) 881 3.9 -21.9°
Maximum altitude 03:08:47 86° 257° (WSW) 709 3.7 -22.1°
Drops below altitude 10° 03:13:34 10° 347° (NNW) 2,174 7.2 -22.7°
Sets 03:15:49 0° 348° (NNW) 3,095 8.2 -23.0°
